Regional Weather Roundup
Issued by NWS

Home | Current Version | Previous Version | Graphics & Text | Print | Product List | Glossary On
Versions: 1 2 3 4 5 6 7 8 9 10 11 12 13 14 15 16 17 18 19 20 21 22 23 24 25 26 27 28 29 30 31 32 33 34 35 36 37 38 39 40 41 42 43 44 45 46 47 48 49 50
388
ASUS45 KCYS 052310
RWRWY

WYOMING REGIONAL WEATHER ROUNDUP
NATIONAL WEATHER SERVICE CHEYENNE WY
500 PM MDT THU MAY 05 2016

NOTE:  "FAIR" INDICATES FEW OR NO CLOUDS BELOW 12,000 FEET
WITH NO SIGNIFICANT WEATHER AND/OR OBSTRUCTIONS TO VISIBILITY.

WYZ001-060000-
YELLOWSTONE NATIONAL PARK

CITY           SKY/WX    TMP DP  RH WIND       PRES   REMARKS
LK YELLOWSTONE   N/A     58  27  30 VRB3      30.13F
W YELLOWSTONE  NOT AVBL

$$
WYZ002>013-054>058-071-098>099-060000-
NORTHERN WYOMING

CITY           SKY/WX    TMP DP  RH WIND       PRES   REMARKS
JACKSON        MOSUNNY   73  23  15 SW6       30.00F
CODY           FAIR      79  30  17 S13G20    29.92F
GREYBULL       FAIR      83  23  11 S6        29.86F
WORLAND        FAIR      81  31  16 SE8       29.89F
SHERIDAN       FAIR      83  34  17 E6        29.89F
BUFFALO        FAIR      81  33  17 NE8       29.96F
GILLETTE       FAIR      83  32  16 VRB3      29.92F
HULETT         FAIR      81  32  17 W6        29.94S
NEWCASTLE      FAIR      81  30  16 SW9       29.93F

$$
WYZ014>020-022>026-101>103-060000-
CENTRAL WYOMING

CITY           SKY/WX    TMP DP  RH WIND       PRES   REMARKS
BIG PINEY      FAIR      71  22  15 S8        30.05F
PINEDALE       FAIR      70  23  17 SE14      30.06F
DUBOIS         FAIR      66  23  19 W12G20    30.07F
LANDER         FAIR      75  35  23 SE14      29.95F
RIVERTON       FAIR      78  36  21 E7        29.98F
CASPER         FAIR      79  27  14 NW8       29.99F
DOUGLAS        FAIR      80  28  15 NW5       29.98F

$$
WYZ021-027>030-104>119-060000-
SOUTHERN WYOMING

CITY           SKY/WX    TMP DP  RH WIND       PRES   REMARKS
EVANSTON       FAIR      71  26  18 S14G23    30.02F
KEMMERER         N/A     73  12   9 S16G22    30.04F
FORT BRIDGER   PTCLDY    72  21  15 S9        30.06F
ROCK SPRINGS   FAIR      72  19  13 SE14      30.04F
DIXON          FAIR      75  23  14 CALM      30.08F
RAWLINS        FAIR      74  21  13 VRB3      30.08F
SARATOGA       FAIR      73  23  15 N12       30.11F
LARAMIE        FAIR      69  27  20 NW8G17    30.12F
CHEYENNE       FAIR      76  28  17 VRB6      30.06F
TORRINGTON     FAIR      80  39  23 CALM      29.94F
PINE BLUFFS    FAIR      77  32  19 SW3       30.03F

$$




USA.gov is the U.S. government's official web portal to all federal, state and local government web resources and services.